This demonstration page uses our WeatherBlox Daily Observations layout. Learn more.

Left ArrowRight Arrow

38.20091, -84.87328

Hourly Observations for August 19, 2022

Temp ( °F °C ) Dew Point ( °F °C ) Humidity (%) Winds ( mph kmh ) Pressure ( in mb ) Visibility ( mi km ) Precip ( " mm )
12:53 am 00:53 Clear 64 17.8 61 16.1 90 90 Calm 29.98 1015 10 16 0.00 0.00
1:53 am 01:53 Clear 62 16.7 61 16.1 96 96 Calm 29.98 1015 10 16 0.00 0.00
2:53 am 02:53 Clear 63 17.2 61 16.1 93 93 Calm 29.99 1016 10 16 0.00 0.00
3:53 am 03:53 Clear 62 16.7 60 15.6 93 93 Calm 30.00 1016 10 16 0.00 0.00
4:53 am 04:53 Clear 61 16.1 59 15 93 93 Calm 29.99 1016 10 16 0.00 0.00
5:53 am 05:53 Clear 60 15.6 59 15 96 96 Calm 30.00 1016 10 16 0.00 0.00
6:10 am 06:10 Clear with Mist and Fog 60 15.6 59 15 96 96 Calm 30.01 1016 2 2 0.00 0.00
6:23 am 06:23 Clear with Mist and Fog 62 16.7 60 15.6 93 93 Calm 30.01 1016 5 8 0.00 0.00
6:53 am 06:53 Clear with Mist and Fog 60 15.6 58 14.4 93 93 Calm 30.01 1016 3 5 0.00 0.00
7:00 am 07:00 Sunny with Mist and Fog 61 16.1 59 15 93 93 Calm 30.02 1017 2 3 0.00 0.00
7:09 am 07:09 Sunny 61 16.1 59 15 93 93 Calm 30.02 1017 10 16 0.00 0.00
7:53 am 07:53 Sunny 63 17.2 62 16.7 97 97 Calm 30.01 1016 9 14 0.00 0.00
8:53 am 08:53 Sunny 70 21.1 64 17.8 81 81 ESE 3 6 30.03 1017 10 16 0.00 0.00
9:53 am 09:53 Sunny 76 24.4 65 18.3 69 69 E 3 6 30.02 1017 10 16 0.00 0.00
10:53 am 10:53 Sunny 79 26.1 65 18.3 62 62 Calm 30.03 1017 10 16 0.00 0.00
11:53 am 11:53 Sunny 82 27.8 63 17.2 53 53 S 5 7 30.03 1017 10 16 0.00 0.00
12:53 pm 12:53 Sunny 85 29.4 62 16.7 46 46 NNE 6 9 30.01 1016 10 16 0.00 0.00
1:53 pm 13:53 Mostly Sunny 86 30 61 16.1 43 43 VRB 5 7 30.00 1016 10 16 0.00 0.00
2:53 pm 14:53 Mostly Cloudy 84 28.9 61 16.1 46 46 SSE 3 6 29.99 1016 10 16 0.00 0.00
3:53 pm 15:53 Mostly Cloudy 87 30.6 62 16.7 43 43 ENE 5 7 29.97 1015 10 16 0.00 0.00
4:53 pm 16:53 Mostly Cloudy 87 30.6 61 16.1 42 42 SE 7 11 29.96 1015 10 16 0.00 0.00
5:53 pm 17:53 Mostly Sunny 86 30 58 14.4 39 39 S 5 7 29.96 1015 10 16 0.00 0.00
6:53 pm 18:53 Cloudy 83 28.3 61 16.1 48 48 SSW 6 9 29.96 1015 10 16 0.00 0.00
7:53 pm 19:53 Mostly Sunny 82 27.8 64 17.8 55 55 Calm 29.96 1015 10 16 0.00 0.00
8:53 pm 20:53 Clear 76 24.4 65 18.3 69 69 Calm 29.97 1015 10 16 0.00 0.00
9:53 pm 21:53 Clear 70 21.1 64 17.8 81 81 Calm 29.99 1016 10 16 0.00 0.00
10:53 pm 22:53 Clear 70 21.1 64 17.8 81 81 Calm 29.99 1016 10 16 0.00 0.00
11:53 pm 23:53 Mostly Clear 69 20.6 64 17.8 84 84 Calm 30.01 1016 10 16 0.00 0.00

Powered by AerisWeather